Flag for U.S.A. Weather past 2 weeks in San Angelo, Texas, U.S.A.

Now
30 °F

Overcast.


Feels Like: 18 °F
Forecast: 21 / 34 °F
Wind: 17 mph from Northeast

Location: Mathis Field

Current Time: Feb 26, 2015 at 7:20:38 PM

Latest Report: Feb 26, 2015 at 6:51 PM


Visibility: 10 mi

Pressure: 30.32 "Hg

Humidity: 66%

Dew point: 20 °F

Location of San AngeloLocation

Historic Weather in San Angelo — Graph

°F

San Angelo temperature yesterday

Maximum temperature yesterday: 65 °F (at 4:51 PM)
Minimum temperature yesterday: 34 °F (at 12:51 AM)
Average temperature yesterday: 48 °F

Past Weeks' High & Low Weather Summary

 TemperatureHumidityPressure
High78 °F (Feb 20, 2:51 PM)96% (Feb 17, 4:51 AM)30.60 "Hg (Feb 17, 4:51 AM)
Low23 °F (Feb 23, 7:51 AM)23% (Feb 18, 2:51 PM)29.64 "Hg (Feb 20, 4:51 PM)
Average47 °F65%30.14 "Hg
* Reported Feb 11 5:51 PM — Feb 26 5:51 PM, San Angelo, Weather by CustomWeather, © 2015

Note: Actual official high and low records may vary slightly from our data, if they occured in-between our weather recording intervals... More about our weather records

Advertising

San Angelo weather history for previous 24 hours

 ConditionsComfort  
Time TempWeatherWind HumidityBarometerVisibility
5:51 PM
Thu, Feb 26
30 °FOvercast.16 mph69%30.30 "Hg10 mi
4:51 PM31 °FOvercast.17 mph67%30.29 "Hg10 mi
3:51 PM31 °FOvercast.20 mph67%30.30 "Hg10 mi
2:51 PM31 °FOvercast.20 mph67%30.29 "Hg10 mi
1:51 PM32 °FOvercast.21 mph66%30.28 "Hg10 mi
12:51 PM33 °FOvercast.20 mph70%30.29 "Hg10 mi
11:51 AM33 °FOvercast.18 mph72%30.29 "Hg10 mi
10:51 AM34 °FOvercast.20 mph73%30.28 "Hg10 mi
9:51 AM35 °FOvercast.24 mph75%30.24 "Hg10 mi
9:03 AM36 °FOvercast.18 mph75%30.18 "Hg10 mi
8:51 AM37 °FOvercast.17 mph76%30.18 "Hg10 mi
7:51 AM38 °FOvercast.18 mph76%30.13 "Hg10 mi
6:51 AM41 °FMostly cloudy.21 mph70%30.05 "Hg10 mi
5:51 AM43 °FPartly cloudy.22 mph74%29.99 "Hg10 mi
4:51 AM43 °FPassing clouds.12 mph74%29.98 "Hg10 mi
3:51 AM40 °FClear.3 mph73%29.93 "Hg10 mi
2:51 AM38 °FClear.7 mph79%29.90 "Hg10 mi
1:51 AM37 °FClear.7 mph82%29.88 "Hg10 mi
12:51 AM35 °FClear.6 mph82%29.87 "Hg10 mi
11:51 PM
Wed, Feb 25
39 °FClear.3 mph76%29.86 "Hg10 mi
10:51 PM43 °FClear.5 mph65%29.85 "Hg10 mi
8:51 PM48 °FClear.6 mph54%29.83 "Hg10 mi
7:51 PM52 °FClear.3 mph45%29.81 "Hg10 mi
Weather by CustomWeather, © 2015

See weather overviewHow to use our weather pages